To NAV CANADA Home Page Login to a new session Search on AWWS site Feedback and Comments Disclaimer Vers la page française équivalente Tips FAQ What's new on the site To the Forecasts and Observations / NOTAM section To "File a Flight Plan" website Publications and other links Update of the User's profile FIC Telephone Numbers My Weather Data Folder Route Weather Data Regional Weather Data Local Weather Data To the Forecasts and Observations / NOTAM section
Request Generated 11/27/2015 at 06:20:48 UTC . Weather information available at that time is displayed.



LWIS CYLU 270600Z AUTO 29018G26KT M10/M14 A2997=
LWIS CYLU 270500Z AUTO 29021G30KT M10/M13 A2995=
LWIS CYLU 270400Z AUTO 29026G32KT M09/M13 A2991=

CYLU - No TAF is issued for this station

Your time UTC time
Weather data provided by Environment Canada and NAV CANADA